Buffalo, NY

12:59 AM EST on January 24, 2018 (GMT -0500)
Buffalo Niagara International

Weather History for KBUF - October, 2014

Change the Weather History Date:

Sunday, October 12, 2014

  Actual Average Record
Temperature  
Mean Temperature 48 °F 52 °F  
Max Temperature 61 °F 60 °F 81 °F (1893)
Min Temperature 35 °F 44 °F 30 °F (1876)
Degree Days  
Heating Degree Days 17 13  
Month to date heating degree days 125 134  
Since 1 July heating degree days 255 296  
Cooling Degree Days 0 0  
Month to date cooling degree days 3 0  
Year to date cooling degree days 510 540  
Moisture  
Dew Point 35 °F    
Average Humidity 63    
Maximum Humidity 89    
Minimum Humidity 36    
Precipitation  
Precipitation 0.00 in 0.12 in 1.55 in (1946)
Month to date precipitation 2.89 1.48  
Year to date precipitation 35.96 30.54  
Snow  
Snow 0.00 in 0.00 in 8.60 in (2006)
Month to date snowfall T 0.2  
Since 1 July snowfall T 0.2  
Since 1 September snowfall T 0.2  
Snow Depth 0.00 in    
Sea Level Pressure  
Sea Level Pressure 30.22 in    
Wind  
Wind Speed 5 mph (ESE)    
Max Wind Speed 13 mph    
Max Gust Speed 17 mph    
Visibility 10 miles    
Events      
T = Trace of Precipitation, MM = Missing Value Source: NWS Daily Summary

Daily Weather History Graph

Daily Weather History Graph

Search for Another Location

Airport or City:

Trip Planner

Search our weather history database for the weather conditions in past years. The results will help you decide how hot, cold, wet, or windy it might be!

Date:

Astronomy

Oct. 12, 2014 Rise Set
Actual Time 7:24 AM EDT 6:37 PM EDT
Civil Twilight 6:56 AM EDT 7:05 PM EDT
Nautical Twilight 6:23 AM EDT 7:38 PM EDT
Astronomical Twilight 5:50 AM EDT 8:11 PM EDT
Moon 9:48 PM EDT (10/12) 11:49 AM EDT (10/12)
Length of Visible Light 12h 09m
Length of Day
11h 12m
Waning Gibbous, 79% of the Moon is Illuminated
Oct 12
Waning Gibbous
Oct 15
Last Quarter
Oct 23
New
Oct 30
First Quarter
Nov 6
Full

Hourly Weather History & Observations

Time (EDT) Temp. Windchill Dew Point Humidity Pressure Visibility Wind Dir Wind Speed Gust Speed Precip Events Conditions
12:54 AM 41.0 °F 39.0 °F 36.0 °F 82% 30.24 in 10.0 mi SE 3.5 mph - N/A   Partly Cloudy
1:54 AM 39.0 °F 36.8 °F 35.1 °F 86% 30.25 in 10.0 mi SE 3.5 mph - N/A   Partly Cloudy
2:54 AM 37.0 °F 33.3 °F 34.0 °F 89% 30.25 in 10.0 mi SSE 4.6 mph - N/A   Partly Cloudy
3:54 AM 37.0 °F 34.5 °F 34.0 °F 89% 30.25 in 10.0 mi SE 3.5 mph - N/A   Partly Cloudy
4:54 AM 37.4 °F - 33.8 °F 87% 30.24 in 10.0 mi Calm Calm - N/A   Partly Cloudy
5:54 AM 36.0 °F 33.3 °F 32.0 °F 86% 30.27 in 10.0 mi ESE 3.5 mph - N/A   Partly Cloudy
6:54 AM 36.0 °F 32.1 °F 32.0 °F 86% 30.29 in 10.0 mi SE 4.6 mph - N/A   Clear
7:54 AM 36.0 °F 33.3 °F 32.0 °F 86% 30.29 in 10.0 mi SSE 3.5 mph - N/A   Partly Cloudy
8:54 AM 39.0 °F 36.8 °F 34.0 °F 82% 30.30 in 10.0 mi ESE 3.5 mph - N/A   Partly Cloudy
9:54 AM 46.0 °F 43.9 °F 37.0 °F 71% 30.30 in 10.0 mi ESE 4.6 mph - N/A   Partly Cloudy
10:54 AM 51.1 °F - 34.0 °F 52% 30.30 in 10.0 mi ESE 8.1 mph - N/A   Partly Cloudy
11:54 AM 53.1 °F - 34.0 °F 48% 30.28 in 10.0 mi ESE 3.5 mph - N/A   Partly Cloudy
12:54 PM 55.0 °F - 33.1 °F 43% 30.26 in 10.0 mi Calm Calm - N/A   Partly Cloudy
1:54 PM 57.9 °F - 34.0 °F 41% 30.22 in 10.0 mi ESE 4.6 mph - N/A   Partly Cloudy
2:54 PM 59.0 °F - 35.1 °F 41% 30.20 in 10.0 mi Variable 3.5 mph - N/A   Partly Cloudy
3:54 PM 59.0 °F - 33.1 °F 38% 30.19 in 10.0 mi East 6.9 mph - N/A   Scattered Clouds
4:54 PM 60.8 °F - 33.8 °F 36% 30.15 in 10.0 mi ESE 9.2 mph - N/A   Mostly Cloudy
5:54 PM 60.1 °F - 35.1 °F 39% 30.16 in 10.0 mi East 6.9 mph - N/A   Partly Cloudy
6:54 PM 55.9 °F - 37.0 °F 49% 30.16 in 10.0 mi NNE 4.6 mph - N/A   Partly Cloudy
7:54 PM 50.0 °F - 39.0 °F 66% 30.17 in 10.0 mi NNE 4.6 mph - N/A   Partly Cloudy
8:54 PM 46.9 °F - 37.9 °F 71% 30.16 in 10.0 mi ENE 5.8 mph - N/A   Clear
9:54 PM 48.0 °F - 37.0 °F 66% 30.15 in 10.0 mi ESE 6.9 mph - N/A   Partly Cloudy
10:54 PM 48.9 °F - 36.0 °F 61% 30.14 in 10.0 mi SE 10.4 mph - N/A   Scattered Clouds
11:54 PM 48.9 °F - 37.0 °F 64% 30.13 in 10.0 mi SE 6.9 mph - N/A   Mostly Cloudy